When you browse on this site, cookies collect data to enhance your experience and personalize the content and advertising you see.
Visit our Privacy Policy to learn more. By continuing to use the site, you agree to this use of cookies and data.
  • In United Kingdom
  • List of Countries
  • For 7 days
  • Water Temperature
  • Satellite Maps
  • Weather Map
  • Weather Widgets
  • user-avatar
    Login

    Hourly Weather Idzhewan

    Today, 21 May, Tuesday

    Time Temperature Precipitation Wind Pressure Humidity
    00:00 +15°C° 1.7 mm 1 mps 693 mmHg 95%
    01:00 +15°C° 0.4 mm 1 mps 693 mmHg 96%
    02:00 +15°C° 0.4 mm 1 mps 693 mmHg 96%
    03:00 +15°C° 0.4 mm 1 mps 693 mmHg 97%
    04:00 +15°C° 0.1 mm 1 mps 693 mmHg 96%
    05:00 +15°C° 0.1 mm 1 mps 693 mmHg 95%
    06:00 +15°C° 0.1 mm 1 mps 694 mmHg 94%
    07:00 +16°C° 0.1 mm 1 mps 694 mmHg 91%
    08:00 +16°C° 0.1 mm 1 mps 694 mmHg 88%
    09:00 +16°C° 0.1 mm 1 mps 694 mmHg 86%
    10:00 +17°C° 0.1 mm 2 mps 694 mmHg 84%
    11:00 +17°C° 0.1 mm 2 mps 694 mmHg 81%
    12:00 +18°C° 0.1 mm 2 mps 694 mmHg 79%
    13:00 +18°C° 0.1 mm 2 mps 694 mmHg 77%
    14:00 +19°C° 0.1 mm 2 mps 694 mmHg 74%
    15:00 +20°C° 0.1 mm 2 mps 694 mmHg 72%
    16:00 +19°C° 0 mm 2 mps 694 mmHg 73%
    17:00 +19°C° 0 mm 2 mps 694 mmHg 75%
    18:00 +19°C° 0 mm 2 mps 694 mmHg 77%
    19:00 +18°C° 0 mm 1 mps 695 mmHg 80%
    20:00 +16°C° 0 mm 1 mps 695 mmHg 82%
    21:00 +15°C° 0 mm 1 mps 695 mmHg 85%
    22:00 +14°C° 0 mm 0 mps 695 mmHg 86%
    23:00 +13°C° 0 mm 0 mps 695 mmHg 87%

    Tomorrow, 22 May, Wednesday

    Time Temperature Precipitation Wind Pressure Humidity
    00:00 +13°C° 0 mm 0 mps 695 mmHg 88%
    01:00 +12°C° 0 mm 0 mps 695 mmHg 89%
    02:00 +12°C° 0 mm 0 mps 695 mmHg 90%
    03:00 +12°C° 0 mm 0 mps 695 mmHg 91%
    04:00 +12°C° 0 mm 0 mps 695 mmHg 90%
    05:00 +13°C° 0 mm 0 mps 695 mmHg 88%
    06:00 +13°C° 0 mm 0 mps 695 mmHg 87%
    07:00 +16°C° 0 mm 1 mps 695 mmHg 83%
    08:00 +18°C° 0 mm 1 mps 695 mmHg 78%
    09:00 +18°C° 0 mm 2 mps 695 mmHg 74%
    10:00 +19°C° 0 mm 2 mps 694 mmHg 72%
    11:00 +20°C° 0 mm 2 mps 694 mmHg 70%
    12:00 +21°C° 0 mm 3 mps 694 mmHg 68%
    13:00 +20°C° 0.5 mm 2 mps 693 mmHg 72%
    14:00 +20°C° 0.5 mm 2 mps 693 mmHg 76%
    15:00 +19°C° 0.5 mm 2 mps 692 mmHg 81%
    16:00 +20°C° 0.9 mm 1 mps 692 mmHg 83%
    17:00 +19°C° 0.9 mm 1 mps 692 mmHg 86%
    18:00 +17°C° 0.9 mm 0 mps 692 mmHg 88%
    19:00 +18°C° 0.4 mm 1 mps 693 mmHg 89%
    20:00 +16°C° 0.4 mm 1 mps 693 mmHg 90%
    21:00 +16°C° 0.4 mm 1 mps 693 mmHg 90%
    22:00 +15°C° 0 mm 1 mps 693 mmHg 90%
    23:00 +15°C° 0 mm 1 mps 693 mmHg 89%

    Day after tomorrow, 23 May, Thursday

    Time Temperature Precipitation Wind Pressure Humidity
    00:00 +15°C° 0 mm 1 mps 693 mmHg 88%
    01:00 +14°C° 0 mm 2 mps 693 mmHg 88%
    02:00 +14°C° 0 mm 2 mps 693 mmHg 87%
    03:00 +13°C° 0 mm 2 mps 692 mmHg 86%
    04:00 +14°C° 0 mm 2 mps 692 mmHg 84%
    05:00 +14°C° 0 mm 2 mps 692 mmHg 82%
    06:00 +15°C° 0 mm 2 mps 692 mmHg 80%
    07:00 +17°C° 0 mm 2 mps 692 mmHg 71%
    08:00 +19°C° 0 mm 2 mps 692 mmHg 62%
    09:00 +21°C° 0 mm 2 mps 692 mmHg 53%
    10:00 +23°C° 0 mm 2 mps 692 mmHg 50%
    11:00 +24°C° 0 mm 3 mps 692 mmHg 48%
    12:00 +25°C° 0 mm 3 mps 692 mmHg 45%
    13:00 +25°C° 0.2 mm 3 mps 692 mmHg 46%
    14:00 +25°C° 0.2 mm 3 mps 691 mmHg 46%
    15:00 +25°C° 0.2 mm 3 mps 691 mmHg 46%
    16:00 +24°C° 0.2 mm 3 mps 691 mmHg 52%
    17:00 +23°C° 0.2 mm 2 mps 691 mmHg 59%
    18:00 +21°C° 0.2 mm 2 mps 691 mmHg 65%
    19:00 +19°C° 0 mm 2 mps 691 mmHg 69%
    20:00 +18°C° 0 mm 1 mps 692 mmHg 73%
    21:00 +15°C° 0 mm 1 mps 692 mmHg 77%
    22:00 +14°C° 0 mm 1 mps 692 mmHg 77%
    23:00 +14°C° 0 mm 1 mps 693 mmHg 78%

    24 May, Friday

    Time Temperature Precipitation Wind Pressure Humidity
    00:00 +14°C° 0 mm 1 mps 693 mmHg 78%
    01:00 +13°C° 0 mm 1 mps 693 mmHg 77%
    02:00 +13°C° 0 mm 1 mps 693 mmHg 76%
    03:00 +13°C° 0 mm 1 mps 693 mmHg 75%
    04:00 +13°C° 0 mm 1 mps 693 mmHg 74%
    05:00 +14°C° 0 mm 1 mps 693 mmHg 73%
    06:00 +15°C° 0 mm 1 mps 693 mmHg 72%
    07:00 +18°C° 0 mm 1 mps 694 mmHg 65%
    08:00 +20°C° 0 mm 1 mps 694 mmHg 58%
    09:00 +22°C° 0 mm 1 mps 694 mmHg 51%
    10:00 +23°C° 0 mm 1 mps 694 mmHg 49%
    11:00 +24°C° 0 mm 2 mps 694 mmHg 48%
    12:00 +25°C° 0 mm 2 mps 694 mmHg 46%
    13:00 +25°C° 0 mm 2 mps 693 mmHg 46%
    14:00 +26°C° 0 mm 2 mps 693 mmHg 47%
    15:00 +26°C° 0 mm 2 mps 693 mmHg 47%
    16:00 +25°C° 0 mm 2 mps 693 mmHg 53%
    17:00 +25°C° 0 mm 2 mps 693 mmHg 59%
    18:00 +24°C° 0 mm 1 mps 693 mmHg 64%
    19:00 +22°C° 0 mm 1 mps 693 mmHg 68%
    20:00 +20°C° 0 mm 1 mps 693 mmHg 72%
    21:00 +18°C° 0 mm 2 mps 694 mmHg 76%
    22:00 +17°C° 0 mm 2 mps 694 mmHg 76%
    23:00 +17°C° 0 mm 2 mps 694 mmHg 76%

    25 May, Saturday

    Time Temperature Precipitation Wind Pressure Humidity
    00:00 +17°C° 0 mm 2 mps 694 mmHg 76%
    01:00 +18°C° 0 mm 1 mps 694 mmHg 74%
    02:00 +18°C° 0 mm 1 mps 694 mmHg 73%
    03:00 +18°C° 0 mm 1 mps 694 mmHg 71%
    04:00 +18°C° 0 mm 1 mps 694 mmHg 72%
    05:00 +19°C° 0 mm 1 mps 694 mmHg 72%
    06:00 +19°C° 0 mm 1 mps 694 mmHg 72%
    07:00 +21°C° 0 mm 1 mps 694 mmHg 66%
    08:00 +23°C° 0 mm 1 mps 695 mmHg 59%
    09:00 +25°C° 0 mm 1 mps 695 mmHg 53%
    10:00 +27°C° 0 mm 2 mps 694 mmHg 50%
    11:00 +28°C° 0 mm 2 mps 694 mmHg 48%
    12:00 +29°C° 0 mm 2 mps 694 mmHg 46%
    13:00 +29°C° 0 mm 2 mps 694 mmHg 46%
    14:00 +29°C° 0 mm 2 mps 693 mmHg 47%
    15:00 +29°C° 0 mm 2 mps 693 mmHg 48%
    16:00 +28°C° 0.4 mm 2 mps 693 mmHg 56%
    17:00 +26°C° 0.4 mm 2 mps 692 mmHg 65%
    18:00 +25°C° 0.4 mm 2 mps 692 mmHg 73%
    19:00 +24°C° 0 mm 2 mps 692 mmHg 74%
    20:00 +21°C° 0 mm 2 mps 692 mmHg 76%
    21:00 +20°C° 0 mm 2 mps 692 mmHg 77%
    22:00 +19°C° 0.1 mm 2 mps 692 mmHg 75%
    23:00 +19°C° 0.1 mm 2 mps 692 mmHg 72%

    26 May, Sunday

    Time Temperature Precipitation Wind Pressure Humidity
    00:00 +19°C° 0.1 mm 2 mps 692 mmHg 70%
    01:00 +19°C° 0 mm 1 mps 692 mmHg 73%
    02:00 +18°C° 0 mm 1 mps 691 mmHg 76%
    03:00 +16°C° 0 mm 1 mps 691 mmHg 79%
    04:00 +18°C° 0 mm 1 mps 691 mmHg 77%
    05:00 +19°C° 0 mm 1 mps 692 mmHg 76%
    06:00 +19°C° 0 mm 1 mps 692 mmHg 74%
    07:00 +22°C° 0 mm 1 mps 692 mmHg 68%
    08:00 +24°C° 0 mm 1 mps 692 mmHg 62%
    09:00 +26°C° 0 mm 1 mps 692 mmHg 57%
    10:00 +27°C° 0 mm 2 mps 692 mmHg 54%
    11:00 +28°C° 0 mm 2 mps 692 mmHg 50%
    12:00 +29°C° 0 mm 2 mps 691 mmHg 47%
    13:00 +29°C° 0.3 mm 2 mps 691 mmHg 51%
    14:00 +29°C° 0.3 mm 3 mps 691 mmHg 54%
    15:00 +28°C° 0.3 mm 3 mps 691 mmHg 57%
    16:00 +27°C° 1 mm 3 mps 691 mmHg 63%
    17:00 +26°C° 1 mm 2 mps 691 mmHg 69%
    18:00 +25°C° 1 mm 2 mps 691 mmHg 74%
    19:00 +23°C° 0 mm 2 mps 692 mmHg 78%
    20:00 +21°C° 0 mm 1 mps 692 mmHg 82%
    21:00 +20°C° 0 mm 1 mps 692 mmHg 85%
    22:00 +19°C° 0 mm 1 mps 693 mmHg 85%
    23:00 +19°C° 0 mm 1 mps 693 mmHg 84%
    Show more